London, KY

8:57 AM EST on December 07, 2016 (GMT -0500)
London-Corbin / McKee

Weather History for KLOZ - March, 2014

Change the Weather History Date:

Sunday, March 30, 2014

  Actual Average Record
Temperature  
Mean Temperature 45 °F 52 °F  
Max Temperature 56 °F 63 °F 83 °F (1963)
Min Temperature 34 °F 40 °F 19 °F (1964)
Degree Days  
Heating Degree Days 20 14  
Month to date heating degree days 637 535  
Since 1 July heating degree days 4144 3811  
Cooling Degree Days 0 0  
Month to date cooling degree days 0 0  
Year to date cooling degree days 0 0  
Moisture  
Dew Point 30 °F    
Average Humidity 61    
Maximum Humidity 89    
Minimum Humidity 32    
Precipitation  
Precipitation 0.00 in 0.14 in 1.04 in (1962)
Month to date precipitation 5.17 3.92  
Year to date precipitation 11.68  
Sea Level Pressure  
Sea Level Pressure 30.15 in    
Wind  
Wind Speed 8 mph (NW)    
Max Wind Speed 21 mph    
Max Gust Speed 28 mph    
Visibility 9 miles    
Events Snow    
T = Trace of Precipitation, MM = Missing Value Source: NWS Daily Summary

Daily Weather History Graph

Daily Weather History Graph

Search for Another Location

Airport or City:

Trip Planner

Search our weather history database for the weather conditions in past years. The results will help you decide how hot, cold, wet, or windy it might be!

Date:

Astronomy

Mar. 30, 2014 Rise Set
Actual Time 7:24 AM EDT 7:57 PM EDT
Civil Twilight 6:58 AM EDT 8:23 PM EDT
Nautical Twilight 6:28 AM EDT 8:54 PM EDT
Astronomical Twilight 5:56 AM EDT 9:25 PM EDT
Moon 7:10 AM EDT (3/30) 8:07 PM EDT (3/30)
Length of Visible Light 13h 24m
Length of Day
12h 32m
Waning Crescent, 0% of the Moon is Illuminated
Mar 30
Waning Crescent
Mar 30
New
Apr 7
First Quarter
Apr 15
Full
Apr 22
Last Quarter

Hourly Weather History & Observations

Time (EDT) Temp. Windchill Dew Point Humidity Pressure Visibility Wind Dir Wind Speed Gust Speed Precip Events Conditions
12:03 AM 34.0 °F 28.0 °F 32.0 °F 92% 30.08 in 6.0 mi NNW 6.9 mph - 0.00 in   Overcast
12:26 AM 34.0 °F 27.2 °F 32.0 °F 92% 30.08 in 5.0 mi NNW 8.1 mph - 0.00 in Snow Light Snow
12:36 AM 34.0 °F 27.2 °F 32.0 °F 92% 30.08 in 5.0 mi NW 8.1 mph - 0.00 in   Overcast
12:53 AM 35.1 °F 28.6 °F 32.0 °F 89% 30.09 in 8.0 mi NNW 8.1 mph - 0.00 in   Overcast
1:28 AM 36.0 °F 27.1 °F 32.0 °F 86% 30.08 in 9.0 mi NNW 13.8 mph 20.7 mph N/A   Overcast
1:53 AM 36.0 °F 26.7 °F 30.9 °F 82% 30.09 in 9.0 mi NNW 15.0 mph 27.6 mph N/A   Overcast
2:18 AM 36.0 °F 26.3 °F 32.0 °F 86% 30.08 in 8.0 mi NW 16.1 mph 24.2 mph N/A   Overcast
2:53 AM 36.0 °F 28.0 °F 32.0 °F 86% 30.10 in 8.0 mi NNW 11.5 mph 20.7 mph N/A   Overcast
3:12 AM 36.0 °F 25.6 °F 30.0 °F 79% 30.09 in 10.0 mi NNW 18.4 mph 26.5 mph N/A   Mostly Cloudy
3:53 AM 35.1 °F 27.4 °F 28.0 °F 76% 30.10 in 10.0 mi NNW 10.4 mph 23.0 mph N/A   Mostly Cloudy
4:53 AM 35.1 °F 26.9 °F 28.9 °F 78% 30.11 in 10.0 mi North 11.5 mph 17.3 mph N/A   Overcast
5:53 AM 35.1 °F 30.1 °F 30.0 °F 82% 30.12 in 10.0 mi NNW 5.8 mph - N/A   Overcast
6:53 AM 35.1 °F 29.3 °F 30.0 °F 82% 30.15 in 10.0 mi NW 6.9 mph - N/A   Overcast
7:53 AM 34.0 °F 28.0 °F 28.0 °F 79% 30.18 in 10.0 mi NW 6.9 mph - N/A   Overcast
8:53 AM 34.0 °F 25.0 °F 28.0 °F 79% 30.20 in 10.0 mi WNW 12.7 mph - N/A   Overcast
9:53 AM 35.1 °F 26.9 °F 28.9 °F 78% 30.22 in 10.0 mi NW 11.5 mph - N/A   Overcast
10:29 AM 37.9 °F 30.9 °F 30.0 °F 73% 30.19 in 10.0 mi WNW 10.4 mph - N/A   Scattered Clouds
10:39 AM 37.0 °F 31.0 °F 30.0 °F 76% 30.20 in 10.0 mi WNW 8.1 mph - N/A   Mostly Cloudy
10:53 AM 37.9 °F 31.5 °F 30.0 °F 73% 30.21 in 10.0 mi WNW 9.2 mph - N/A   Mostly Cloudy
11:00 AM 37.9 °F 31.5 °F 30.0 °F 73% 30.19 in 10.0 mi WNW 9.2 mph - N/A   Scattered Clouds
11:53 AM 41.0 °F 36.4 °F 30.0 °F 65% 30.20 in 10.0 mi West 6.9 mph - N/A   Clear
12:53 PM 46.0 °F 42.5 °F 30.9 °F 56% 30.18 in 10.0 mi NW 6.9 mph - N/A   Clear
1:53 PM 48.9 °F - 32.0 °F 52% 30.19 in 10.0 mi NW 10.4 mph - N/A   Clear
2:53 PM 52.0 °F - 33.1 °F 49% 30.17 in 10.0 mi NNW 11.5 mph - N/A   Clear
3:53 PM 54.0 °F - 30.0 °F 40% 30.14 in 10.0 mi North 9.2 mph - N/A   Clear
4:53 PM 55.0 °F - 30.0 °F 38% 30.13 in 10.0 mi NW 9.2 mph - N/A   Clear
5:53 PM 55.9 °F - 27.0 °F 33% 30.13 in 10.0 mi NNW 12.7 mph - N/A   Clear
6:53 PM 55.0 °F - 27.0 °F 34% 30.14 in 10.0 mi NNW 6.9 mph - N/A   Clear
7:53 PM 52.0 °F - 27.0 °F 38% 30.14 in 10.0 mi NNW 4.6 mph - N/A   Clear
8:05 PM 51.1 °F - 26.1 °F 38% 30.14 in 10.0 mi NNW 4.6 mph - N/A   Partly Cloudy
8:53 PM 48.9 °F - 27.0 °F 43% 30.17 in 10.0 mi NW 4.6 mph - N/A   Clear
9:53 PM 45.0 °F - 30.9 °F 58% 30.18 in 10.0 mi Calm Calm - N/A   Clear
10:53 PM 42.1 °F - 30.9 °F 65% 30.19 in 10.0 mi Calm Calm - N/A   Clear
11:53 PM 39.0 °F - 30.9 °F 73% 30.20 in 10.0 mi Calm Calm - N/A   Clear